Location: Chevoux
(46.3801°N, 4.9476°E)
Time: 20:16:47
(UTC+00:00)

X-37B - Pass Details

Date: 23 April 2021
Orbit: 386 x 389 km, 45.0° (Epoch: 08 May)

Event Time Altitude Azimuth Distance (km) Brightness Sun altitude
Exits shadow 03:13:46 27° 261° (W) 790 1.6 -13.9°
Maximum altitude 03:15:20 69° 184° (S) 419 0.5 -13.7°
Drops below altitude 10° 03:18:30 10° 100° (E) 1,413 4.1 -13.2°
Sets 03:20:34 0° 98° (E) 2,266 5.3 -12.9°
